[[{"header":{"parameterUnit":"m.s-1","parameterCategory":1,"la1":30.2991,"la2":30.254,"lo1":-89.0895,"lo2":-89.0444,"dy":0.0017,"dx":0.0017,"nx":28,"ny":28,"refTime":"2025-11-05T03:00:00:Z","depth":0,"parameterNumber":2,"parameterNumberName":"U-component_of_WINDS"},"data":[0,0,0,0,0,0,0,0,0,0,0,0,0,0,0,0,0,0,0,0,0,0,0,0,0,0,0,0,0,0,0,0,0,0,0,0,0,0,0,0,0,0,0,0,0,0,0,0,0,0,0,0,0,0,0,0,0,0,-1.3807,-1.3806,0,-1.3769,-1.3769,-1.3768,-1.3665,-1.3663,-1.366,-1.3658,-1.3625,-1.3627,-1.3628,0,0,0,0,0,0,0,0,0,0,0,0,0,-1.3793,-1.3794,-1.3807,-1.3806,-1.3806,-1.3769,-1.3769,-1.3768,-1.3665,-1.3663,-1.366,-1.3657,-1.3625,-1.3626,-1.3628,0,0,0,0,0,0,0,0,0,0,0,0,0,-1.3782,-1.3794,-1.3807,-1.375,-1.3744,-1.3769,-1.3769,-1.3768,-1.3666,-1.3663,-1.3659,-1.3656,-1.3625,-1.3626,-1.3628,-1.3707,0,0,-1.3634,-1.3634,0,0,0,0,0,0,0,0,-1.3783,-1.3783,-1.3759,-1.3754,-1.3748,-1.3718,-1.3752,-1.3748,-1.3667,-1.3696,-1.3658,-1.3654,-1.3659,-1.3658,-1.3659,-1.3705,-1.3704,-1.3634,-1.3635,-1.3636,-1.3636,0,0,0,0,0,0,0,-1.3784,-1.3784,-1.3792,-1.3759,-1.3752,-1.3728,-1.3722,-1.3751,-1.3697,-1.3693,-1.3685,-1.3682,-1.3656,-1.3657,-1.3657,-1.3704,-1.3634,-1.3635,-1.3637,-1.3637,-1.3814,-1.3817,0,0,0,0,0,0,-1.3792,-1.3785,-1.3793,-1.3791,-1.3757,-1.3731,-1.3725,-1.3731,-1.3697,-1.3688,-1.3685,-1.3678,-1.3656,-1.3655,-1.3656,-1.3746,-1.3636,-1.3637,-1.3638,-1.381,-1.3815,-1.3819,0,0,0,0,0,0,-1.3792,-1.3794,-1.3795,-1.3786,-1.3784,-1.3734,-1.3743,-1.3732,-1.3733,-1.369,-1.3681,-1.3696,-1.3653,-1.3653,-1.3695,-1.3744,-1.3638,-1.364,-1.3806,-1.3812,-1.3817,-1.3928,0,0,0,0,0,0,-1.3792,-1.3794,-1.3823,-1.3787,-1.3785,-1.3834,-1.3746,-1.3734,-1.3736,-1.3726,-1.3698,-1.369,-1.365,-1.3693,-1.3697,-1.3744,-1.3641,-1.3801,-1.3809,-1.3815,-1.392,-1.3937,-1.3951,0,0,0,0,0,-1.3792,-1.3857,-1.3825,-1.3826,-1.3819,-1.3836,-1.3835,-1.3786,-1.3741,-1.377,-1.3742,-1.3691,-1.3737,-1.3698,-1.3701,-1.375,-1.3798,-1.3807,-1.3814,-1.3913,-1.3933,-1.3951,0,0,0,0,0,0,-1.3901,-1.3851,-1.3815,-1.387,-1.3858,-1.3819,-1.3854,-1.3809,-1.3812,-1.3802,-1.3743,-1.3738,-1.3788,-1.3773,-1.373,-1.3825,-1.376,-1.3769,-1.3833,-1.3852,-1.3868,-1.3871,-1.3643,0,0,0,0,0,-1.3931,-1.3948,-1.3904,-1.3957,-1.3952,-1.3904,-1.391,-1.3873,-1.3859,-1.3854,-1.3829,-1.3819,-1.3831,-1.3841,-1.3849,-1.3917,-1.391,-1.3952,-1.3968,-1.3981,-1.399,-1.4026,-1.4044,-1.3845,-1.3845,-1.3845,0,0,-1.3995,-1.3969,-1.3984,-1.3978,-1.3964,-1.3984,-1.3901,-1.3926,-1.394,-1.3858,-1.3896,-1.3878,-1.3862,-1.3918,-1.3941,-1.3907,-1.4043,-1.3991,-1.4002,-1.4004,-1.4036,-1.4055,-1.4072,-1.3851,-1.385,-1.3849,0,0,-1.412,-1.4102,-1.4144,-1.4132,-1.4111,-1.4079,-1.4089,-1.4057,-1.4041,-1.4077,-1.4016,-1.4034,-1.4056,-1.4047,-1.4046,-1.4168,-1.4122,-1.4173,-1.4255,-1.429,-1.4306,-1.432,-1.4364,-1.4381,-1.4182,-1.4182,-1.4182,0,-1.4202,-1.4228,-1.4172,-1.42,-1.42,-1.4124,-1.4168,-1.4159,-1.4144,-1.4146,-1.4108,-1.4134,-1.4118,-1.4171,-1.42,-1.4201,-1.4213,-1.4176,-1.4308,-1.4321,-1.4333,-1.4375,-1.4392,-1.4188,-1.4188,-1.4187,-1.4186,0,-1.4329,-1.4349,-1.4385,-1.4371,-1.4374,-1.441,-1.4361,-1.4372,-1.4335,-1.4307,-1.4346,-1.4324,-1.4327,-1.4337,-1.4301,-1.4385,-1.4365,-1.4318,-1.4251,-1.4359,-1.4398,-1.4413,-1.4197,-1.4195,-1.4193,-1.4192,0,0,-1.4524,-1.4477,-1.4491,-1.4484,-1.4456,-1.4471,-1.4504,-1.4505,-1.4516,-1.4508,-1.4535,-1.4555,-1.4512,-1.451,-1.4473,-1.4504,-1.4604,-1.4453,-1.4452,-1.4484,-1.4696,-1.4732,-1.4752,-1.4572,-1.4575,-1.4577,-1.4698,0,-1.4643,-1.4695,-1.4645,-1.4708,-1.4726,-1.4654,-1.4683,-1.467,-1.4645,-1.4658,-1.463,-1.4646,-1.4586,-1.4585,-1.4612,-1.4586,-1.4646,-1.4576,-1.4599,-1.4601,-1.4607,-1.4772,-1.481,-1.4925,-1.4712,-1.4715,-1.4717,0,-1.4789,-1.4786,-1.4851,-1.4818,-1.4824,-1.4851,-1.4848,-1.486,-1.4845,-1.4824,-1.4823,-1.4777,-1.4809,-1.4742,-1.4786,-1.474,-1.4746,-1.4735,-1.4738,-1.4739,-1.4666,-1.4779,-1.496,-1.4978,-1.474,-1.4738,-1.4736,0,-1.4926,-1.4938,-1.4978,-1.4974,-1.4937,-1.4958,-1.4944,-1.4924,-1.4929,-1.4927,-1.4929,-1.4932,-1.4935,-1.4938,-1.4895,-1.485,-1.4945,-1.4875,-1.4931,-1.4932,-1.4956,-1.4955,-1.5142,-1.4957,-1.4957,-1.4957,-1.4956,0,-1.5066,-1.5108,-1.5039,-1.5064,-1.511,-1.5053,-1.51,-1.5079,-1.5062,-1.5083,-1.5021,-1.5043,-1.4983,-1.4999,-1.4965,-1.5007,-1.5009,-1.4994,-1.4985,-1.5001,-1.5003,-1.5006,-1.4997,-1.4961,-1.496,-1.4959,-1.4959,0,-1.5227,-1.5182,-1.5222,-1.5183,-1.5174,-1.521,-1.5178,-1.52,-1.517,-1.5198,-1.5201,-1.5155,-1.517,-1.5126,-1.5135,-1.5112,-1.5174,-1.5151,-1.518,-1.5173,-1.5232,-1.5228,-1.5428,-1.5453,-1.5252,-1.5254,-1.5255,0,-1.532,-1.5351,-1.5315,-1.5323,-1.5312,-1.5327,-1.533,-1.5276,-1.5282,-1.5266,-1.5291,-1.53,-1.5305,-1.5333,-1.5301,-1.5308,-1.5286,-1.5355,-1.5287,-1.5302,-1.5289,-1.5288,-1.5292,-1.5371,-1.5373,-1.5375,-1.5377,0,-1.549,-1.5466,-1.5472,-1.5471,-1.5477,-1.5474,-1.5467,-1.5478,-1.5419,-1.543,-1.5443,-1.5447,-1.5455,-1.5466,-1.5465,-1.5452,-1.5406,-1.5398,-1.5412,-1.5429,-1.5445,-1.5439,-1.522,-1.5394,-1.5393,-1.5391,-1.539,-1.539,-1.562,-1.5644,-1.5623,-1.5633,-1.5621,-1.5616,-1.5635,-1.5607,-1.5617,-1.5618,-1.5585,-1.5606,-1.559,-1.5584,-1.5576,-1.5593,-1.5561,-1.5581,-1.5586,-1.5592,-1.5603,-1.544,-1.5592,-1.5592,-1.5591,-1.5591,-1.559,0,-1.5788,-1.577,-1.578,-1.5771,-1.5779,-1.5732,-1.5721,-1.5732,-1.575,-1.5738,-1.5744,-1.576,-1.577,-1.5739,-1.5745,-1.5765,-1.5744,-1.5768,-1.5767,-1.5766,-1.563,-1.5618,-1.5785,-1.5785,-1.5785,-1.5785,-1.5785,-1.5785,-1.5876,-1.5915,-1.5889,-1.5922,-1.5904,-1.5923,-1.5921,-1.5917,-1.5907,-1.5927,-1.5934,-1.5913,-1.5894,-1.5898,-1.5906,-1.5897,-1.5903,-1.5936,-1.592,-1.5794,-1.5775,-1.5757,-1.5746,-1.5937,-1.5937,-1.6054,-1.6055,-1.6056]},{"header":{"parameterUnit":"m.s-1","parameterCategory":1,"la1":30.2991,"la2":30.254,"lo1":-89.0895,"lo2":-89.0444,"dy":0.0017,"dx":0.0017,"nx":28,"ny":28,"refTime":"2025-11-05T03:00:00:Z","depth":0,"parameterNumber":3,"parameterNumberName":"V-component_of_WINDS"},"data":[0,0,0,0,0,0,0,0,0,0,0,0,0,0,0,0,0,0,0,0,0,0,0,0,0,0,0,0,0,0,0,0,0,0,0,0,0,0,0,0,0,0,0,0,0,0,0,0,0,0,0,0,0,0,0,0,0,0,-1.2847,-1.2846,0,-1.2817,-1.2817,-1.2816,-1.2762,-1.2761,-1.276,-1.2759,-1.2727,-1.2727,-1.2727,0,0,0,0,0,0,0,0,0,0,0,0,0,-1.2857,-1.2857,-1.2847,-1.2846,-1.2846,-1.2817,-1.2817,-1.2816,-1.2763,-1.2761,-1.276,-1.2759,-1.2727,-1.2727,-1.2727,0,0,0,0,0,0,0,0,0,0,0,0,0,-1.2842,-1.2857,-1.2847,-1.2816,-1.2813,-1.2817,-1.2817,-1.2816,-1.2763,-1.2761,-1.276,-1.2758,-1.2727,-1.2727,-1.2727,-1.2759,0,0,-1.2728,-1.2728,0,0,0,0,0,0,0,0,-1.2843,-1.2842,-1.2821,-1.2818,-1.2815,-1.2792,-1.2808,-1.2797,-1.2763,-1.2782,-1.2759,-1.2758,-1.275,-1.2748,-1.2746,-1.2758,-1.2756,-1.2728,-1.2728,-1.2728,-1.2728,0,0,0,0,0,0,0,-1.2844,-1.2843,-1.2835,-1.2821,-1.2817,-1.2803,-1.28,-1.2806,-1.2775,-1.278,-1.2776,-1.2773,-1.2748,-1.2746,-1.2745,-1.2756,-1.2728,-1.2728,-1.2728,-1.2728,-1.2794,-1.2796,0,0,0,0,0,0,-1.285,-1.2844,-1.2836,-1.2834,-1.2825,-1.2804,-1.28,-1.2801,-1.2775,-1.2769,-1.2775,-1.2771,-1.2746,-1.2745,-1.2743,-1.278,-1.2728,-1.2728,-1.2728,-1.2792,-1.2794,-1.2796,0,0,0,0,0,0,-1.285,-1.285,-1.2837,-1.2838,-1.2835,-1.2806,-1.2807,-1.2801,-1.2799,-1.2771,-1.2765,-1.2778,-1.2745,-1.2743,-1.2756,-1.2778,-1.2728,-1.2728,-1.279,-1.2793,-1.2795,-1.2854,0,0,0,0,0,0,-1.2851,-1.285,-1.2862,-1.2839,-1.2836,-1.2851,-1.2808,-1.2801,-1.2799,-1.2794,-1.2772,-1.2767,-1.2744,-1.2756,-1.2756,-1.2778,-1.2728,-1.2788,-1.2792,-1.2795,-1.2849,-1.2858,-1.2865,0,0,0,0,0,-1.2851,-1.2879,-1.2863,-1.2862,-1.285,-1.2852,-1.285,-1.2823,-1.2801,-1.2813,-1.2795,-1.2768,-1.2776,-1.2758,-1.2758,-1.2779,-1.2787,-1.2791,-1.2794,-1.2846,-1.2856,-1.2865,0,0,0,0,0,0,-1.2904,-1.2875,-1.2857,-1.2878,-1.2868,-1.2843,-1.2857,-1.2834,-1.283,-1.2825,-1.2791,-1.2786,-1.2805,-1.2793,-1.2774,-1.281,-1.2777,-1.2781,-1.2817,-1.2826,-1.2833,-1.2836,-1.2729,0,0,0,0,0,-1.2918,-1.2923,-1.2897,-1.2918,-1.2914,-1.2887,-1.2887,-1.2867,-1.2855,-1.285,-1.2833,-1.2823,-1.2823,-1.2823,-1.2822,-1.2847,-1.2843,-1.2862,-1.287,-1.2876,-1.288,-1.2895,-1.2903,-1.2809,-1.2808,-1.2808,0,0,-1.2947,-1.2932,-1.2937,-1.2928,-1.2918,-1.2924,-1.2883,-1.2891,-1.2895,-1.2851,-1.2863,-1.2851,-1.2836,-1.2857,-1.2864,-1.2847,-1.2905,-1.2881,-1.2886,-1.2887,-1.2899,-1.2908,-1.2916,-1.2811,-1.2811,-1.281,0,0,-1.3004,-1.2992,-1.3009,-1.3001,-1.2987,-1.2969,-1.2973,-1.2952,-1.2942,-1.2954,-1.2921,-1.2926,-1.2926,-1.2918,-1.2914,-1.2969,-1.2945,-1.297,-1.301,-1.3024,-1.3032,-1.3038,-1.3059,-1.3067,-1.2974,-1.2974,-1.2974,0,-1.3042,-1.305,-1.3021,-1.3031,-1.3029,-1.299,-1.3008,-1.3,-1.2986,-1.2986,-1.2967,-1.2968,-1.2956,-1.2974,-1.2988,-1.2986,-1.299,-1.2972,-1.3033,-1.3039,-1.3045,-1.3065,-1.3073,-1.2977,-1.2977,-1.2976,-1.2976,0,-1.3098,-1.3104,-1.3119,-1.3108,-1.3107,-1.3121,-1.3094,-1.3097,-1.3077,-1.3061,-1.3074,-1.3058,-1.3054,-1.3057,-1.3037,-1.3073,-1.3063,-1.3039,-1.3006,-1.3058,-1.3076,-1.3083,-1.2982,-1.298,-1.2979,-1.2979,0,0,-1.3186,-1.316,-1.3166,-1.3162,-1.3144,-1.3148,-1.3161,-1.3157,-1.3161,-1.3152,-1.3163,-1.3165,-1.3143,-1.3139,-1.3118,-1.3131,-1.3178,-1.3105,-1.3104,-1.312,-1.3218,-1.3237,-1.3247,-1.3161,-1.3162,-1.3163,-1.322,0,-1.324,-1.326,-1.3235,-1.3261,-1.3267,-1.3231,-1.3242,-1.3233,-1.3218,-1.3221,-1.3205,-1.3208,-1.3178,-1.3176,-1.3186,-1.317,-1.3197,-1.3165,-1.3171,-1.3171,-1.3177,-1.3256,-1.3275,-1.3329,-1.3227,-1.3228,-1.3229,0,-1.3305,-1.3302,-1.3328,-1.3311,-1.3312,-1.3323,-1.3318,-1.3321,-1.331,-1.3299,-1.3295,-1.3271,-1.3282,-1.325,-1.3265,-1.3245,-1.3245,-1.3238,-1.3239,-1.3239,-1.3204,-1.3259,-1.3346,-1.3355,-1.3239,-1.3238,-1.3238,0,-1.3369,-1.3371,-1.3387,-1.3384,-1.3364,-1.3372,-1.3364,-1.3351,-1.3351,-1.3347,-1.3347,-1.3344,-1.3343,-1.3342,-1.3318,-1.3296,-1.3337,-1.3302,-1.3328,-1.3329,-1.3339,-1.3339,-1.3429,-1.3338,-1.3338,-1.3338,-1.3338,0,-1.3432,-1.345,-1.3416,-1.3427,-1.3446,-1.3417,-1.3437,-1.3425,-1.3415,-1.3423,-1.3391,-1.3399,-1.3366,-1.337,-1.3351,-1.3368,-1.3367,-1.3359,-1.3354,-1.3363,-1.3364,-1.3363,-1.3359,-1.334,-1.3339,-1.3339,-1.3339,0,-1.3507,-1.3485,-1.3501,-1.3481,-1.3476,-1.3492,-1.3474,-1.3483,-1.3467,-1.3478,-1.3478,-1.3453,-1.3457,-1.3433,-1.3432,-1.3419,-1.3445,-1.3433,-1.345,-1.3446,-1.3475,-1.3473,-1.3568,-1.3579,-1.3481,-1.3482,-1.3482,0,-1.3549,-1.3563,-1.3544,-1.3548,-1.3542,-1.3547,-1.3547,-1.3519,-1.3521,-1.3511,-1.3521,-1.3523,-1.3522,-1.353,-1.3512,-1.3512,-1.35,-1.3533,-1.3499,-1.3508,-1.3502,-1.3502,-1.3504,-1.354,-1.3542,-1.3543,-1.3543,0,-1.3627,-1.3616,-1.3618,-1.3617,-1.3619,-1.3616,-1.3611,-1.3616,-1.3586,-1.3589,-1.3593,-1.3593,-1.3593,-1.3596,-1.3592,-1.3583,-1.3559,-1.3554,-1.3561,-1.357,-1.358,-1.3576,-1.347,-1.3552,-1.3551,-1.3551,-1.355,-1.355,-1.3688,-1.3699,-1.3689,-1.3692,-1.3686,-1.3683,-1.3691,-1.3676,-1.368,-1.3678,-1.3661,-1.3669,-1.3659,-1.3651,-1.3645,-1.3651,-1.3635,-1.3644,-1.3646,-1.3649,-1.3655,-1.3578,-1.365,-1.365,-1.3649,-1.3649,-1.3649,0,-1.3766,-1.3758,-1.3761,-1.3756,-1.376,-1.3737,-1.3731,-1.3735,-1.3743,-1.3735,-1.3736,-1.3742,-1.3745,-1.3727,-1.3727,-1.3735,-1.3725,-1.3737,-1.3736,-1.3735,-1.3669,-1.3664,-1.3746,-1.3746,-1.3746,-1.3746,-1.3746,-1.3746,-1.3807,-1.3825,-1.3812,-1.3827,-1.3818,-1.3827,-1.3825,-1.3822,-1.3817,-1.3825,-1.3827,-1.3816,-1.3805,-1.3804,-1.3806,-1.3801,-1.3803,-1.3819,-1.381,-1.3749,-1.3739,-1.373,-1.3726,-1.3819,-1.382,-1.3876,-1.3877,-1.3877]}]]